Weather History for ESNG - January, 2014

Change the Weather History Date:

Friday, January 24, 2014

  Actual Average Record
Temperature  
Mean Temperature -26 °F -  
Max Temperature -20 °F - - ()
Min Temperature -31 °F - - ()
Degree Days  
Heating Degree Days 90    
Moisture  
Dew Point -30 °F    
Average Humidity 71    
Maximum Humidity 76    
Minimum Humidity 48    
Precipitation  
Precipitation 0.00 in - - ()
Sea Level Pressure  
Sea Level Pressure 30.15 in    
Wind  
Wind Speed 3 mph ()    
Max Wind Speed 5 mph    
Max Gust Speed -    
Visibility 6.2 miles    
Events      
T = Trace of Precipitation, MM = Missing Value Source: Averaged Metar Reports

Daily Weather History Graph

Daily Weather History Graph

Search for Another Location

Airport or City:

Trip Planner

Search our weather history database for the weather conditions in past years. The results will help you decide how hot, cold, wet, or windy it might be!

Date:

Astronomy

Jan. 24, 2014 Rise Set
Actual Time 9:15 AM CET 2:22 PM CET
Civil Twilight 7:59 AM CET 3:38 PM CET
Nautical Twilight 6:49 AM CET 4:49 PM CET
Astronomical Twilight 5:45 AM CET 5:53 PM CET
Moon 1:25 AM CET (1/24) 9:19 AM CET (1/24)
Length of Visible Light 7h 39m
Length of Day
5h 06m
Waning Gibbous, 47% of the Moon is Illuminated
Jan 24
Waning Gibbous
Jan 30
New
Feb 6
First Quarter
Feb 15
Full
Feb 22
Last Quarter

Hourly Weather History & Observations

Time (CET) Temp. Windchill Dew Point Humidity Pressure Visibility Wind Dir Wind Speed Gust Speed Precip Events Conditions
12:20 AM -18.4 °F -28.9 °F -23.8 °F 76% 30.09 in 6.2 mi West 3.5 mph - N/A   Unknown
12:50 AM -18.4 °F -28.9 °F -23.8 °F 76% 30.09 in 6.2 mi WNW 3.5 mph - N/A   Unknown
1:00 AM -28 °F - -35 °F 54% 30.23 in 28 mi SW 2.2 mph - -   Clear
1:20 AM -20.2 °F -30.9 °F -25.6 °F 76% 30.09 in 6.2 mi West 3.5 mph - N/A   Unknown
1:50 AM -18.4 °F -28.9 °F -25.6 °F 70% 30.09 in 6.2 mi WNW 3.5 mph - N/A   Unknown
2:20 AM -20.2 °F -30.9 °F -25.6 °F 76% 30.09 in 6.2 mi West 3.5 mph - N/A   Unknown
2:50 AM -22.0 °F -33.0 °F -27.4 °F 76% 30.09 in 6.2 mi West 3.5 mph - N/A   Unknown
3:20 AM -22.0 °F -35.6 °F -27.4 °F 76% 30.09 in 6.2 mi West 4.6 mph - N/A   Unknown
3:50 AM -22.0 °F -35.6 °F -27.4 °F 76% 30.09 in 6.2 mi West 4.6 mph - N/A   Unknown
4:00 AM -21 °F - -26 °F 62% 30.23 in 31 mi WSW 2.2 mph - -  
4:20 AM -22.0 °F -33.0 °F -27.4 °F 76% 30.09 in 6.2 mi West 3.5 mph - N/A   Unknown
4:50 AM -20.2 °F -30.9 °F -25.6 °F 76% 30.09 in - WNW 3.5 mph - N/A   Clear
5:20 AM -20.2 °F -30.9 °F -25.6 °F 76% 30.09 in - WNW 3.5 mph - N/A   Clear
5:50 AM -20.2 °F -30.9 °F -25.6 °F 76% 30.09 in - WNW 3.5 mph - N/A   Clear
6:20 AM -22.0 °F -33.0 °F -27.4 °F 76% 30.12 in - WNW 3.5 mph - N/A   Clear
6:50 AM -23.8 °F -35.0 °F -29.2 °F 76% 30.12 in - West 3.5 mph - N/A   Clear
7:00 AM -25 °F - -32 °F 56% 30.25 in 31 mi West 2.2 mph - -  
7:20 AM -22.0 °F -33.0 °F -27.4 °F 76% 30.12 in - West 3.5 mph - N/A   Clear
7:50 AM -20.2 °F -33.5 °F -27.4 °F 69% 30.12 in - West 4.6 mph - N/A   Clear
8:20 AM -22.0 °F -35.6 °F -27.4 °F 76% 30.12 in - West 4.6 mph - N/A   Clear
8:50 AM -23.8 °F -37.7 °F -29.2 °F 76% 30.12 in - WSW 4.6 mph - N/A   Clear
9:20 AM -23.8 °F -35.0 °F -29.2 °F 76% 30.15 in - West 3.5 mph - N/A   Clear
9:50 AM -20.2 °F -30.9 °F -27.4 °F 69% 30.15 in - NW 3.5 mph - N/A   Clear
10:00 AM -24 °F - -30 °F 57% 30.27 in 31 mi Calm Calm - -  
10:20 AM -23.8 °F -35.0 °F -29.2 °F 76% 30.15 in - West 3.5 mph - N/A   Clear
10:50 AM -22.0 °F -33.0 °F -27.4 °F 76% 30.15 in - West 3.5 mph - N/A   Clear
11:20 AM -22.0 °F -33.0 °F -27.4 °F 76% 30.15 in - West 3.5 mph - N/A   Clear
11:50 AM -22.0 °F -33.0 °F -27.4 °F 76% 30.15 in - West 3.5 mph - N/A   Clear
12:20 PM -22.0 °F -33.0 °F -27.4 °F 76% 30.15 in - West 3.5 mph - N/A   Clear
12:50 PM -20.2 °F -30.9 °F -27.4 °F 69% 30.15 in - West 3.5 mph - N/A   Clear
1:00 PM -22 °F - -28 °F 59% 30.29 in 31 mi WSW 2.2 mph - -  
1:20 PM -22.0 °F -33.0 °F -27.4 °F 76% 30.15 in - West 3.5 mph - N/A   Clear
1:50 PM -22.0 °F -33.0 °F -27.4 °F 76% 30.15 in - West 3.5 mph - N/A   Clear
2:20 PM -22.0 °F -33.0 °F -27.4 °F 76% 30.15 in - West 3.5 mph - N/A   Clear
2:50 PM -22.0 °F -33.0 °F -29.2 °F 69% 30.15 in - West 3.5 mph - N/A   Clear
3:20 PM -23.8 °F -35.0 °F -29.2 °F 76% 30.15 in - West 3.5 mph - N/A   Clear
3:50 PM -23.8 °F - -31.0 °F 69% 30.15 in - West 2.3 mph - N/A   Clear
4:00 PM -27 °F - -34 °F 55% 30.30 in 31 mi WSW 2.2 mph - -  
4:20 PM -23.8 °F -35.0 °F -31.0 °F 69% 30.15 in - West 3.5 mph - N/A   Clear
4:50 PM -23.8 °F - -31.0 °F 69% 30.15 in - NW 2.3 mph - N/A   Clear
5:20 PM -25.6 °F - -31.0 °F 76% 30.15 in - West 2.3 mph - N/A   Clear
5:50 PM -25.6 °F - -31.0 °F 76% 30.15 in - West 2.3 mph - N/A   Clear
6:20 PM -25.6 °F - -32.8 °F 69% 30.15 in - West 2.3 mph - N/A   Clear
6:50 PM -27.4 °F - -32.8 °F 75% 30.15 in - West 2.3 mph - N/A   Clear
7:00 PM -28 °F - -35 °F 55% 30.29 in 31 mi WSW 2.2 mph - -  
7:20 PM -27.4 °F -39.2 °F -34.6 °F 69% 30.15 in - West 3.5 mph - N/A   Clear
7:50 PM -27.4 °F - -34.6 °F 69% 30.15 in - WSW 2.3 mph - N/A   Clear
8:20 PM -27.4 °F - -34.6 °F 69% 30.15 in - West 2.3 mph - N/A   Clear
8:50 PM -27.4 °F -39.2 °F -34.6 °F 69% 30.15 in - West 3.5 mph - N/A   Clear
9:20 PM -29.2 °F -41.2 °F -34.6 °F 75% 30.15 in - West 3.5 mph - N/A   Clear
9:50 PM -29.2 °F -41.2 °F -34.6 °F 75% 30.12 in - WSW 3.5 mph - N/A   Clear
10:00 PM -30 °F - -38 °F 48% 30.27 in 31 mi SW 2.2 mph - -  
10:20 PM -29.2 °F - -34.6 °F 75% 30.12 in 6.2 mi NW 2.3 mph - N/A   Unknown
10:50 PM -29.2 °F - -36.4 °F 68% 30.12 in 6.2 mi West 2.3 mph - N/A   Unknown
11:20 PM -31.0 °F - -38.2 °F 68% 30.12 in 6.2 mi NW 2.3 mph - N/A   Unknown
11:50 PM -31.0 °F -43.3 °F -38.2 °F 68% 30.12 in 6.2 mi WSW 3.5 mph - N/A   Unknown